• In Uzbekistan
  • List of Countries
  • For 7 days
  • Water Temperature
  • Satellite Maps
  • Weather Map
  • Weather Widgets
  • user-avatar
    Login

    Hourly Weather Florianópolis

    Today, 17 June, Monday

    Time Temperature Precipitation Wind Pressure Humidity
    00:00 +20°C° 0 mm 0 mps 767 mmHg 86%
    01:00 +20°C° 0 mm 0 mps 767 mmHg 87%
    02:00 +19°C° 0 mm 0 mps 767 mmHg 88%
    03:00 +19°C° 0 mm 0 mps 767 mmHg 88%
    04:00 +21°C° 0 mm 1 mps 767 mmHg 87%
    05:00 +21°C° 0 mm 1 mps 767 mmHg 87%
    06:00 +20°C° 0 mm 1 mps 766 mmHg 87%
    07:00 +21°C° 0 mm 1 mps 767 mmHg 84%
    08:00 +20°C° 0 mm 0 mps 768 mmHg 80%
    09:00 +21°C° 0 mm 0 mps 768 mmHg 77%
    10:00 +25°C° 0 mm 1 mps 768 mmHg 70%
    11:00 +26°C° 0 mm 1 mps 768 mmHg 63%
    12:00 +27°C° 0 mm 1 mps 767 mmHg 57%
    13:00 +27°C° 0 mm 1 mps 767 mmHg 57%
    14:00 +27°C° 0 mm 2 mps 766 mmHg 58%
    15:00 +27°C° 0 mm 2 mps 766 mmHg 58%
    16:00 +25°C° 0 mm 2 mps 766 mmHg 68%
    17:00 +23°C° 0 mm 2 mps 766 mmHg 78%
    18:00 +22°C° 0 mm 1 mps 766 mmHg 88%
    19:00 +21°C° 0 mm 1 mps 766 mmHg 90%
    20:00 +21°C° 0 mm 1 mps 766 mmHg 91%
    21:00 +20°C° 0 mm 1 mps 767 mmHg 93%
    22:00 +20°C° 0 mm 1 mps 766 mmHg 94%
    23:00 +19°C° 0 mm 2 mps 766 mmHg 94%

    Tomorrow, 18 June, Tuesday

    Time Temperature Precipitation Wind Pressure Humidity
    00:00 +19°C° 0 mm 2 mps 766 mmHg 95%
    01:00 +19°C° 0 mm 2 mps 766 mmHg 94%
    02:00 +19°C° 0 mm 2 mps 765 mmHg 93%
    03:00 +19°C° 0 mm 2 mps 765 mmHg 93%
    04:00 +19°C° 0 mm 2 mps 765 mmHg 92%
    05:00 +19°C° 0 mm 2 mps 765 mmHg 92%
    06:00 +18°C° 0 mm 2 mps 765 mmHg 92%
    07:00 +19°C° 0 mm 2 mps 765 mmHg 88%
    08:00 +20°C° 0 mm 2 mps 765 mmHg 85%
    09:00 +21°C° 0 mm 2 mps 765 mmHg 82%
    10:00 +22°C° 0 mm 3 mps 765 mmHg 76%
    11:00 +24°C° 0 mm 3 mps 764 mmHg 69%
    12:00 +26°C° 0 mm 3 mps 764 mmHg 62%
    13:00 +26°C° 0 mm 4 mps 763 mmHg 62%
    14:00 +26°C° 0 mm 4 mps 763 mmHg 61%
    15:00 +27°C° 0 mm 4 mps 762 mmHg 61%
    16:00 +25°C° 0 mm 3 mps 762 mmHg 69%
    17:00 +22°C° 0 mm 3 mps 762 mmHg 78%
    18:00 +21°C° 0 mm 3 mps 762 mmHg 87%
    19:00 +21°C° 0 mm 3 mps 762 mmHg 88%
    20:00 +20°C° 0 mm 3 mps 763 mmHg 89%
    21:00 +20°C° 0 mm 2 mps 763 mmHg 90%
    22:00 +20°C° 0 mm 2 mps 763 mmHg 90%
    23:00 +19°C° 0 mm 2 mps 763 mmHg 90%

    Day after tomorrow, 19 June, Wednesday

    Time Temperature Precipitation Wind Pressure Humidity
    00:00 +19°C° 0 mm 2 mps 763 mmHg 90%
    01:00 +19°C° 0 mm 3 mps 763 mmHg 89%
    02:00 +19°C° 0 mm 3 mps 762 mmHg 89%
    03:00 +19°C° 0 mm 3 mps 762 mmHg 89%
    04:00 +19°C° 0 mm 3 mps 762 mmHg 88%
    05:00 +19°C° 0 mm 3 mps 761 mmHg 87%
    06:00 +19°C° 0 mm 3 mps 761 mmHg 86%
    07:00 +20°C° 0 mm 2 mps 762 mmHg 82%
    08:00 +21°C° 0 mm 2 mps 762 mmHg 77%
    09:00 +23°C° 0 mm 2 mps 762 mmHg 73%
    10:00 +25°C° 0 mm 2 mps 762 mmHg 67%
    11:00 +26°C° 0 mm 2 mps 761 mmHg 60%
    12:00 +28°C° 0 mm 1 mps 761 mmHg 54%
    13:00 +27°C° 0 mm 2 mps 761 mmHg 60%
    14:00 +27°C° 0 mm 3 mps 761 mmHg 66%
    15:00 +26°C° 0 mm 3 mps 761 mmHg 72%
    16:00 +24°C° 0 mm 3 mps 761 mmHg 79%
    17:00 +23°C° 0 mm 2 mps 761 mmHg 86%
    18:00 +20°C° 0 mm 2 mps 761 mmHg 93%
    19:00 +21°C° 0 mm 1 mps 762 mmHg 93%
    20:00 +21°C° 0 mm 1 mps 762 mmHg 93%
    21:00 +19°C° 0 mm 0 mps 762 mmHg 92%
    22:00 +20°C° 0 mm 1 mps 763 mmHg 92%
    23:00 +20°C° 0 mm 1 mps 763 mmHg 92%

    20 June, Thursday

    Time Temperature Precipitation Wind Pressure Humidity
    00:00 +20°C° 0 mm 1 mps 763 mmHg 92%
    01:00 +19°C° 0 mm 1 mps 763 mmHg 91%
    02:00 +19°C° 0 mm 1 mps 763 mmHg 91%
    03:00 +17°C° 0 mm 2 mps 763 mmHg 91%
    04:00 +17°C° 0 mm 2 mps 764 mmHg 88%
    05:00 +16°C° 0 mm 2 mps 764 mmHg 85%
    06:00 +15°C° 0 mm 2 mps 764 mmHg 82%
    07:00 +16°C° 0 mm 1 mps 765 mmHg 78%
    08:00 +18°C° 0 mm 1 mps 765 mmHg 74%
    09:00 +18°C° 0 mm 1 mps 766 mmHg 70%
    10:00 +20°C° 0 mm 1 mps 766 mmHg 65%
    11:00 +22°C° 0 mm 1 mps 766 mmHg 60%
    12:00 +23°C° 0 mm 1 mps 766 mmHg 55%
    13:00 +23°C° 0 mm 2 mps 766 mmHg 57%
    14:00 +21°C° 0 mm 2 mps 766 mmHg 58%
    15:00 +21°C° 0 mm 3 mps 766 mmHg 60%
    16:00 +20°C° 0 mm 3 mps 766 mmHg 68%
    17:00 +18°C° 0 mm 3 mps 767 mmHg 76%
    18:00 +16°C° 0 mm 3 mps 767 mmHg 84%
    19:00 +16°C° 0 mm 3 mps 767 mmHg 85%
    20:00 +14°C° 0 mm 3 mps 768 mmHg 86%
    21:00 +15°C° 0 mm 2 mps 768 mmHg 87%
    22:00 +15°C° 0 mm 2 mps 768 mmHg 88%
    23:00 +15°C° 0 mm 2 mps 769 mmHg 89%

    21 June, Friday

    Time Temperature Precipitation Wind Pressure Humidity
    00:00 +14°C° 0 mm 1 mps 769 mmHg 89%
    01:00 +14°C° 0 mm 1 mps 769 mmHg 89%
    02:00 +14°C° 0 mm 1 mps 769 mmHg 89%
    03:00 +14°C° 0 mm 1 mps 769 mmHg 89%
    04:00 +15°C° 0 mm 1 mps 769 mmHg 87%
    05:00 +15°C° 0 mm 1 mps 769 mmHg 85%
    06:00 +16°C° 0 mm 1 mps 769 mmHg 82%
    07:00 +18°C° 0 mm 1 mps 769 mmHg 78%
    08:00 +18°C° 0 mm 1 mps 770 mmHg 73%
    09:00 +19°C° 0 mm 1 mps 770 mmHg 69%
    10:00 +19°C° 0 mm 2 mps 770 mmHg 65%
    11:00 +20°C° 0 mm 2 mps 770 mmHg 62%
    12:00 +21°C° 0 mm 3 mps 769 mmHg 58%
    13:00 +21°C° 0 mm 3 mps 769 mmHg 59%
    14:00 +21°C° 0 mm 3 mps 768 mmHg 59%
    15:00 +21°C° 0 mm 4 mps 768 mmHg 60%
    16:00 +20°C° 0 mm 4 mps 768 mmHg 67%
    17:00 +19°C° 0 mm 4 mps 768 mmHg 75%
    18:00 +17°C° 0 mm 3 mps 768 mmHg 82%
    19:00 +17°C° 0 mm 3 mps 769 mmHg 84%
    20:00 +17°C° 0 mm 3 mps 769 mmHg 86%
    21:00 +16°C° 0 mm 3 mps 769 mmHg 88%
    22:00 +16°C° 0 mm 3 mps 769 mmHg 88%
    23:00 +16°C° 0 mm 3 mps 769 mmHg 89%

    22 June, Saturday

    Time Temperature Precipitation Wind Pressure Humidity
    00:00 +16°C° 0 mm 3 mps 769 mmHg 89%
    01:00 +16°C° 0 mm 3 mps 768 mmHg 89%
    02:00 +16°C° 0 mm 3 mps 768 mmHg 88%
    03:00 +16°C° 0 mm 3 mps 768 mmHg 88%
    04:00 +15°C° 0 mm 4 mps 768 mmHg 88%
    05:00 +15°C° 0 mm 4 mps 768 mmHg 88%
    06:00 +15°C° 0 mm 4 mps 768 mmHg 87%
    07:00 +17°C° 0 mm 4 mps 768 mmHg 84%
    08:00 +18°C° 0 mm 4 mps 768 mmHg 80%
    09:00 +19°C° 0 mm 4 mps 768 mmHg 77%
    10:00 +21°C° 0 mm 4 mps 768 mmHg 71%
    11:00 +22°C° 0 mm 4 mps 768 mmHg 64%
    12:00 +25°C° 0 mm 4 mps 767 mmHg 58%
    13:00 +26°C° 0 mm 3 mps 767 mmHg 57%
    14:00 +26°C° 0 mm 3 mps 766 mmHg 56%
    15:00 +27°C° 0 mm 3 mps 765 mmHg 56%
    16:00 +25°C° 0 mm 3 mps 765 mmHg 66%
    17:00 +22°C° 0 mm 3 mps 766 mmHg 75%
    18:00 +20°C° 0 mm 2 mps 766 mmHg 85%
    19:00 +19°C° 0 mm 2 mps 766 mmHg 85%
    20:00 +19°C° 0 mm 2 mps 766 mmHg 85%
    21:00 +19°C° 0 mm 2 mps 767 mmHg 85%
    22:00 +18°C° 0 mm 2 mps 766 mmHg 84%
    23:00 +18°C° 0 mm 2 mps 766 mmHg 84%
    Show more